When you browse on this site, cookies collect data to enhance your experience and personalize the content and advertising you see.
Visit our Privacy Policy to learn more. By continuing to use the site, you agree to this use of cookies and data.
  • In Lithuania
  • List of Countries
  • For 7 days
  • Water Temperature
  • Satellite Maps
  • Weather Map
  • Weather Widgets
  • user-avatar
    Login

    Hourly Weather Renevo

    Today, 19 July, Friday

    Time Temperature Precipitation Wind Pressure Humidity
    00:00 +12°C° 0 mm 3 mps 739 mmHg 92%
    01:00 +12°C° 0 mm 3 mps 739 mmHg 93%
    02:00 +12°C° 0 mm 3 mps 739 mmHg 94%
    03:00 +12°C° 0 mm 3 mps 739 mmHg 96%
    04:00 +12°C° 0 mm 4 mps 739 mmHg 96%
    05:00 +13°C° 0 mm 4 mps 739 mmHg 95%
    06:00 +13°C° 0 mm 5 mps 739 mmHg 95%
    07:00 +14°C° 0.2 mm 5 mps 739 mmHg 93%
    08:00 +14°C° 0.2 mm 5 mps 739 mmHg 92%
    09:00 +15°C° 0.2 mm 6 mps 739 mmHg 90%
    10:00 +15°C° 0.3 mm 6 mps 740 mmHg 90%
    11:00 +15°C° 0.3 mm 6 mps 740 mmHg 89%
    12:00 +15°C° 0.3 mm 6 mps 740 mmHg 89%
    13:00 +17°C° 0.2 mm 7 mps 740 mmHg 85%
    14:00 +18°C° 0.2 mm 7 mps 740 mmHg 81%
    15:00 +20°C° 0.2 mm 7 mps 740 mmHg 77%
    16:00 +20°C° 0.2 mm 7 mps 740 mmHg 78%
    17:00 +20°C° 0.2 mm 6 mps 741 mmHg 78%
    18:00 +20°C° 0.2 mm 6 mps 741 mmHg 78%
    19:00 +19°C° 0 mm 5 mps 741 mmHg 83%
    20:00 +16°C° 0 mm 5 mps 741 mmHg 87%
    21:00 +15°C° 0 mm 4 mps 741 mmHg 91%
    22:00 +15°C° 0 mm 4 mps 742 mmHg 90%
    23:00 +14°C° 0 mm 4 mps 742 mmHg 89%

    Tomorrow, 20 July, Saturday

    Time Temperature Precipitation Wind Pressure Humidity
    00:00 +14°C° 0 mm 5 mps 742 mmHg 88%
    01:00 +14°C° 0 mm 5 mps 742 mmHg 89%
    02:00 +13°C° 0 mm 5 mps 742 mmHg 90%
    03:00 +13°C° 0 mm 5 mps 743 mmHg 90%
    04:00 +13°C° 0 mm 5 mps 743 mmHg 88%
    05:00 +14°C° 0 mm 5 mps 743 mmHg 87%
    06:00 +14°C° 0 mm 5 mps 743 mmHg 85%
    07:00 +15°C° 0 mm 5 mps 743 mmHg 82%
    08:00 +16°C° 0 mm 6 mps 744 mmHg 79%
    09:00 +17°C° 0 mm 6 mps 744 mmHg 77%
    10:00 +19°C° 0.1 mm 6 mps 744 mmHg 74%
    11:00 +20°C° 0.1 mm 7 mps 744 mmHg 71%
    12:00 +21°C° 0.1 mm 7 mps 744 mmHg 68%
    13:00 +22°C° 0.4 mm 7 mps 744 mmHg 68%
    14:00 +22°C° 0.4 mm 7 mps 744 mmHg 67%
    15:00 +22°C° 0.4 mm 7 mps 744 mmHg 66%
    16:00 +22°C° 0.2 mm 6 mps 745 mmHg 70%
    17:00 +21°C° 0.2 mm 6 mps 745 mmHg 73%
    18:00 +21°C° 0.2 mm 5 mps 745 mmHg 77%
    19:00 +19°C° 0.1 mm 5 mps 745 mmHg 81%
    20:00 +18°C° 0.1 mm 4 mps 745 mmHg 86%
    21:00 +17°C° 0.1 mm 3 mps 745 mmHg 90%
    22:00 +17°C° 0 mm 3 mps 746 mmHg 92%
    23:00 +15°C° 0 mm 4 mps 746 mmHg 93%

    Day after tomorrow, 21 July, Sunday

    Time Temperature Precipitation Wind Pressure Humidity
    00:00 +15°C° 0 mm 4 mps 746 mmHg 94%
    01:00 +15°C° 0 mm 4 mps 746 mmHg 94%
    02:00 +14°C° 0 mm 4 mps 746 mmHg 95%
    03:00 +14°C° 0 mm 4 mps 746 mmHg 95%
    04:00 +14°C° 0 mm 4 mps 746 mmHg 94%
    05:00 +14°C° 0 mm 4 mps 746 mmHg 93%
    06:00 +14°C° 0 mm 4 mps 747 mmHg 93%
    07:00 +17°C° 0 mm 4 mps 747 mmHg 87%
    08:00 +17°C° 0 mm 5 mps 747 mmHg 82%
    09:00 +20°C° 0 mm 5 mps 747 mmHg 77%
    10:00 +21°C° 0 mm 5 mps 747 mmHg 73%
    11:00 +22°C° 0 mm 5 mps 746 mmHg 70%
    12:00 +23°C° 0 mm 5 mps 746 mmHg 66%
    13:00 +23°C° 0.3 mm 5 mps 746 mmHg 67%
    14:00 +23°C° 0.3 mm 5 mps 746 mmHg 67%
    15:00 +25°C° 0.3 mm 5 mps 746 mmHg 68%
    16:00 +23°C° 0.3 mm 5 mps 746 mmHg 70%
    17:00 +23°C° 0.3 mm 4 mps 746 mmHg 72%
    18:00 +23°C° 0.3 mm 4 mps 746 mmHg 74%
    19:00 +21°C° 0 mm 3 mps 746 mmHg 78%
    20:00 +19°C° 0 mm 3 mps 746 mmHg 83%
    21:00 +18°C° 0 mm 3 mps 746 mmHg 87%
    22:00 +17°C° 0 mm 2 mps 746 mmHg 88%
    23:00 +17°C° 0 mm 2 mps 746 mmHg 89%

    22 July, Monday

    Time Temperature Precipitation Wind Pressure Humidity
    00:00 +16°C° 0 mm 2 mps 746 mmHg 90%
    01:00 +16°C° 0 mm 2 mps 746 mmHg 91%
    02:00 +15°C° 0 mm 2 mps 746 mmHg 92%
    03:00 +15°C° 0 mm 2 mps 746 mmHg 92%
    04:00 +15°C° 0 mm 2 mps 746 mmHg 92%
    05:00 +15°C° 0 mm 2 mps 746 mmHg 92%
    06:00 +16°C° 0 mm 2 mps 746 mmHg 91%
    07:00 +17°C° 0 mm 2 mps 746 mmHg 86%
    08:00 +19°C° 0 mm 2 mps 746 mmHg 80%
    09:00 +20°C° 0 mm 2 mps 746 mmHg 75%
    10:00 +21°C° 0 mm 2 mps 746 mmHg 70%
    11:00 +23°C° 0 mm 2 mps 746 mmHg 65%
    12:00 +24°C° 0 mm 2 mps 746 mmHg 59%
    13:00 +25°C° 0 mm 2 mps 745 mmHg 58%
    14:00 +25°C° 0 mm 2 mps 745 mmHg 56%
    15:00 +26°C° 0 mm 2 mps 745 mmHg 55%
    16:00 +25°C° 0 mm 1 mps 745 mmHg 57%
    17:00 +25°C° 0 mm 1 mps 744 mmHg 59%
    18:00 +25°C° 0 mm 1 mps 744 mmHg 61%
    19:00 +23°C° 0 mm 1 mps 744 mmHg 65%
    20:00 +22°C° 0 mm 1 mps 744 mmHg 69%
    21:00 +20°C° 0 mm 1 mps 744 mmHg 73%
    22:00 +19°C° 0 mm 1 mps 744 mmHg 76%
    23:00 +18°C° 0 mm 2 mps 743 mmHg 79%

    23 July, Tuesday

    Time Temperature Precipitation Wind Pressure Humidity
    00:00 +17°C° 0 mm 2 mps 743 mmHg 82%
    01:00 +17°C° 0 mm 2 mps 743 mmHg 83%
    02:00 +16°C° 0 mm 2 mps 743 mmHg 84%
    03:00 +16°C° 0 mm 2 mps 743 mmHg 85%
    04:00 +16°C° 0 mm 2 mps 742 mmHg 86%
    05:00 +16°C° 0 mm 2 mps 742 mmHg 87%
    06:00 +16°C° 0 mm 2 mps 742 mmHg 87%
    07:00 +17°C° 0 mm 3 mps 742 mmHg 83%
    08:00 +19°C° 0 mm 3 mps 742 mmHg 78%
    09:00 +20°C° 0 mm 4 mps 742 mmHg 74%
    10:00 +21°C° 0 mm 4 mps 742 mmHg 70%
    11:00 +22°C° 0 mm 4 mps 742 mmHg 67%
    12:00 +23°C° 0 mm 4 mps 742 mmHg 63%
    13:00 +23°C° 0 mm 4 mps 742 mmHg 62%
    14:00 +23°C° 0 mm 4 mps 742 mmHg 61%
    15:00 +25°C° 0 mm 4 mps 742 mmHg 60%
    16:00 +24°C° 0 mm 3 mps 742 mmHg 62%
    17:00 +24°C° 0 mm 3 mps 742 mmHg 64%
    18:00 +24°C° 0 mm 3 mps 742 mmHg 67%
    19:00 +21°C° 0 mm 3 mps 742 mmHg 71%
    20:00 +19°C° 0 mm 3 mps 742 mmHg 76%
    21:00 +18°C° 0 mm 3 mps 742 mmHg 81%
    22:00 +17°C° 0 mm 3 mps 742 mmHg 81%
    23:00 +16°C° 0 mm 3 mps 742 mmHg 81%

    24 July, Wednesday

    Time Temperature Precipitation Wind Pressure Humidity
    00:00 +16°C° 0 mm 3 mps 742 mmHg 82%
    01:00 +14°C° 0 mm 3 mps 742 mmHg 85%
    02:00 +15°C° 0 mm 2 mps 742 mmHg 87%
    03:00 +14°C° 0 mm 2 mps 742 mmHg 90%
    04:00 +13°C° 0 mm 3 mps 742 mmHg 90%
    05:00 +14°C° 0 mm 3 mps 742 mmHg 90%
    06:00 +14°C° 0 mm 3 mps 742 mmHg 90%
    07:00 +16°C° 0 mm 3 mps 742 mmHg 84%
    08:00 +18°C° 0 mm 3 mps 742 mmHg 79%
    09:00 +19°C° 0 mm 4 mps 742 mmHg 74%
    10:00 +20°C° 0 mm 4 mps 742 mmHg 71%
    11:00 +22°C° 0 mm 4 mps 742 mmHg 68%
    12:00 +23°C° 0 mm 4 mps 742 mmHg 64%
    13:00 +23°C° 0.1 mm 4 mps 742 mmHg 64%
    14:00 +23°C° 0.1 mm 4 mps 742 mmHg 64%
    15:00 +23°C° 0.1 mm 5 mps 742 mmHg 64%
    16:00 +23°C° 0.1 mm 5 mps 742 mmHg 66%
    17:00 +22°C° 0.1 mm 4 mps 742 mmHg 69%
    18:00 +22°C° 0.1 mm 4 mps 742 mmHg 71%
    19:00 +20°C° 0 mm 4 mps 742 mmHg 74%
    20:00 +19°C° 0 mm 3 mps 743 mmHg 76%
    21:00 +18°C° 0 mm 3 mps 743 mmHg 79%
    22:00 +17°C° 0 mm 3 mps 743 mmHg 80%
    23:00 +16°C° 0 mm 3 mps 743 mmHg 81%
    Show more